Showing default

RROCI-2, 59106

Orbit data source: Space-Track

RROCI-2, 59106 is an American payload satellite in SSO that was launched on Mon, 04 Mar 2024 UTC via an FALCON 9 launch vehicle from the Air Force Western Test Range (AFWTR). Payload-class satellites include a variety of spacecraft equipped with specific instruments for various scientific and technological missions. These include communications satellites like Starlink; space stations such as the ISS; scientific satellites like the Hubble; Earth observation satellites from companies like Planet Labs, Umbra, and HawkEye 360; GPS; miniature CubeSats for education and research; and military/defense satellites.

Loading next visibility...
Identifier
59106, 2024-043J
Orbit
SSO
Country
Flag of USUS
Related business
Manufacturer
Orion Space Sol.
Mission
Operational Commercial Weather
Bus & Motor
CUBESAT 12U, Unknown motor
Mass
19 kg wet, 19 kg dry
Launch date (UTC)
2024-03-04 (2 years ago)
Launch vehicle
FALCON 9
Launch site
Air Force Western Test Range (AFWTR)
Object type
Payload
Rocket body
Debris
Shape & HBR
Box + 2 Pan, 0.5 m
Radar Cross Section
0.126 m², Medium (>0.1 m² and < 1m²)

Expand to show TLE details & history
Last TLE update: 9 hours ago

TLE from 9 hours ago
0 RROCI-2
1 59106U 24043J   26125.28764916  .00002951  00000-0  24387-3 0  9997
2 59106  97.8382 257.7320 0008075 154.2994 205.8632 14.99719089118339
Epoch: 2026-05-05T06:54Z
TLE epoch observation values (Epoch: 2026-05-05T06:54:12.887Z)
Latitude
0.00002°
Longitude
-68.98635°
Altitude
575.863 km
Speed
7.57 km/s
True Right ascension
17h 10m 55s
True Declination
0° 00' 00"
Sunlit
Object was in full shadow at epoch
Visualization orbit readout
Latitude
Unknown
Longitude
Unknown
Altitude
Unknown
Speed
Unknown
Apparent Right ascension
Unknown
Apparent Declination
Unknown
Sunlit
N/A
Visualization observer readout
Local Sidereal Time
23:27:13
Azimuth
Unknown
Elevation
Unknown
Doppler factor
Unknown
Orbital elements
Apogee altitude
570.382 km
Perigee altitude
559.169 km
Semi-major axis
6,942.912 km
Eccentricity
0.00081
Inclination
97.8382°
RAAN
257.732°
Arg. of periapsis
154.2994°
True anomaly
205.82287°
Mean anomaly
205.8632°
Eccentric anomaly
205.84303°
Mean motion
3.75172 °/min
Orbital period
95.96 mins
BSTAR
0.00024387
Loading maneuver chart data...
Computing Atmospheric mass density...
Loading historical data...
Loading historical data...
Loading historical data...
Loading historical data...
Loading historical data...
Loading historical data...
Loading historical data...

Documentation

Showing up to 5 results
|